sat.trackr.live / text

‹ back to catalog

ONEWEB-0018

NORAD 45434 · 2020-020L

PAYLOAD ACTIVE UNKNOWN

§ Identity

Operator
Country
UK
Launch date
2020-03-21
Launch site
TYMSC
Launch vehicle
Mass (kg)
RCS (m²)

Purposes: comms

External: N2YO · Heavens-Above · Gunter

§ Orbital elements

Epoch: 2026-09-20T04:58:27.050592Z

Period
109.80 min
Inclination
87.8971°
Eccentricity
0.0002042
Mean motion
13.11415732 rev/d
Perigee alt
1,216.1 km
Apogee alt
1,219.2 km
Semi-major
7,595.8 km
B*
4.7135e-4
RAAN
2.1787°
Arg perigee
92.4439°
Mean anomaly
267.6923°
Rev number
31,508

§ Raw data

ONEWEB-00181 45434U 20020L   26263.20725753  .00000180  00000+0  47135-3 0  99952 45434  87.8971   2.1787 0002042  92.4439 267.6923 13.11415732315086

JSON: /api/v1/satellites/45434 · /tle

For live sub-satellite position, see the globe view (requires WebGL).

§ Visibility from observer

Set your observer location to see the next 7 days of passes ≥ 10°. The values pass through the URL so the page stays shareable.

No JS? Fill the form by hand. The geolocation button needs JavaScript.